{"data":{"norad_id":57827,"intl_designator":"2023-138V","name":"STARLINK-30402","alt_names":[],"object_type":"PAYLOAD","status":"ACTIVE","operator":null,"country":"US","launch_date":"2023-09-09","launch_site_code":"AFETR","launch_vehicle":null,"mission":null,"orbit_class":"UNKNOWN","rcs_meters":null,"size_class":null,"mass_kg":null,"dimensions":null,"purposes":["comms"],"wikipedia_slug":null,"has_3d_model":false,"image_url":null,"decayed_at":null,"tle_current":{"epoch":"2026-05-25T00:35:40.854624Z","epoch_age_seconds":73721,"freshness":"FRESH","line1":"1 57827U 23138V   26145.02477841  .00001666  00000+0  70069-4 0  9991","line2":"2 57827  43.0034 163.0059 0001374 271.6063  88.4631 15.27578874150403","mean_motion":15.27578874,"eccentricity":0.0001374,"inclination_deg":43.0034,"raan_deg":163.0059,"arg_perigee_deg":271.6063,"mean_anomaly_deg":88.4631,"bstar":7.0069e-5,"rev_number":15040,"period_min":94.266818199006,"perigee_km":482.10974025794,"apogee_km":483.99519512366,"semimajor_km":6861.1894676908,"source":"CELESTRAK","updated_at":"2026-05-25T13:38:18.412537Z"}}}